Date String (YYYY-MM-DD hh:mm:ss) UTC,Instrument flags,Ambient pressure (hPa),Sample flow (lpm),Bypass flow (lpm),Sample temperature (°C),Ambient temperature (°C),ASC tube jacket temperature (°C),LED temperature (°C),Box temperature (°C),Sample RH (%),Span deviation,Mass concentration (μg/m³),Mass concentration (μg/m³),Mass concentration (μg/m³)
DateTimeUTC,F1_M11,P_M11,Q1_M11,Q2_M11,T1_M11,T2_M11,T3_M11,T4_M11,T5_M11,U1_M11,ZSPAN_M11,X0_M11,X2_M11,X1_M11
2022-07-21 05:00:00,,0828.1,5.00,0.00,29.6,28.6,00.0,38.3,31.6,26.5,0000.0,0012.28,0005.27,0004.18
2022-07-21 05:01:00,,0828.2,5.01,0.00,29.7,28.5,00.0,38.3,31.7,26.3,0000.0,0012.44,0005.28,0004.17
2022-07-21 05:02:00,,0828.1,5.00,0.00,29.7,27.6,00.0,38.2,31.5,26.2,0000.0,0012.43,0005.27,0004.18
2022-07-21 05:03:00,,0828.1,5.01,0.00,29.6,27.0,00.0,38.2,31.4,27.7,0000.0,0012.85,0005.33,0004.20
2022-07-21 05:04:00,,0828.1,4.99,0.00,29.5,26.9,00.0,38.2,31.3,28.8,0000.0,0013.14,0005.45,0004.25
2022-07-21 05:05:00,,0828.1,5.01,0.00,29.5,27.0,00.0,38.2,31.2,28.6,0000.0,0013.23,0005.54,0004.29
2022-07-21 05:06:00,,0828.1,5.00,0.00,29.4,27.1,00.0,38.2,31.2,27.7,0000.0,0013.40,0005.64,0004.31
2022-07-21 05:07:00,,0828.1,5.00,0.00,29.4,27.3,00.0,38.2,31.2,27.5,0000.0,0014.33,0005.70,0004.33
2022-07-21 05:08:00,,0828.1,5.00,0.00,29.4,27.5,00.0,38.2,31.2,27.4,0000.0,0015.31,0005.75,0004.36
2022-07-21 05:09:00,,0828.1,5.01,0.00,29.4,27.7,00.0,38.2,31.3,27.3,0000.0,0016.11,0005.77,0004.37
2022-07-21 05:10:00,,0828.1,4.99,0.00,29.4,27.9,00.0,38.2,31.3,27.5,0000.0,0016.06,0005.77,0004.38
2022-07-21 05:11:00,,0828.1,5.02,0.00,29.4,28.0,00.0,38.2,31.4,27.5,0000.0,0016.21,0005.83,0004.39
2022-07-21 05:12:00,,0828.1,4.99,0.00,29.5,28.2,00.0,38.2,31.4,28.1,0000.0,0016.64,0005.86,0004.42
2022-07-21 05:13:00,,0828.2,5.01,0.00,29.5,28.3,00.0,38.2,31.5,28.2,0000.0,0016.71,0005.92,0004.45
2022-07-21 05:14:00,,0828.1,4.99,0.00,29.5,28.4,00.0,38.2,31.5,28.0,0000.0,0016.38,0005.97,0004.48
2022-07-21 05:15:00,,0828.1,5.01,0.00,29.6,28.5,00.0,38.3,31.5,27.6,0000.0,0016.17,0005.94,0004.47
2022-07-21 05:16:00,,0828.1,4.99,0.00,29.6,28.6,00.0,38.3,31.6,27.2,0000.0,0016.14,0005.86,0004.44
2022-07-21 05:17:00,,0828.1,5.01,0.00,29.6,28.6,00.0,38.3,31.6,26.9,0000.0,0015.88,0005.85,0004.43
2022-07-21 05:18:00,,0828.1,5.00,0.00,29.7,28.5,00.0,38.3,31.7,26.7,0000.0,0014.83,0005.82,0004.43
2022-07-21 05:19:00,,0828.1,5.01,0.00,29.7,27.6,00.0,38.2,31.5,26.7,0000.0,0013.31,0005.81,0004.42
2022-07-21 05:20:00,,0828.1,5.01,0.00,29.6,27.0,00.0,38.2,31.4,26.8,0000.0,0012.79,0005.81,0004.41
2022-07-21 05:21:00,,0828.1,4.99,0.00,29.5,26.9,00.0,38.2,31.3,26.8,0000.0,0013.13,0005.84,0004.41
2022-07-21 05:22:00,,0828.1,5.00,0.00,29.4,26.9,00.0,38.2,31.2,27.0,0000.0,0013.12,0005.79,0004.41
2022-07-21 05:23:00,,0828.0,5.01,0.00,29.4,27.1,00.0,38.2,31.2,28.0,0000.0,0013.10,0005.76,0004.41
2022-07-21 05:24:00,,0828.0,5.01,0.00,29.4,27.3,00.0,38.2,31.2,28.2,0000.0,0013.13,0005.76,0004.42
2022-07-21 05:25:00,,0828.0,4.99,0.00,29.4,27.5,00.0,38.2,31.2,27.6,0000.0,0014.24,0005.78,0004.42
2022-07-21 05:26:00,,0828.1,4.99,0.00,29.4,27.6,00.0,38.2,31.2,27.1,0000.0,0013.84,0005.73,0004.40
2022-07-21 05:27:00,,0828.0,5.01,0.00,29.4,27.8,00.0,38.2,31.3,26.9,0000.0,0013.67,0005.76,0004.40
2022-07-21 05:28:00,,0828.0,5.02,0.00,29.4,27.9,00.0,38.2,31.3,26.9,0000.0,0013.56,0005.77,0004.42
2022-07-21 05:29:00,,0828.0,4.99,0.00,29.4,28.1,00.0,38.2,31.4,27.5,0000.0,0013.59,0005.79,0004.43
2022-07-21 05:30:00,,0828.0,5.00,0.00,29.5,28.2,00.0,38.2,31.4,27.7,0000.0,0013.79,0005.83,0004.47
2022-07-21 05:31:00,,0828.0,5.00,0.00,29.5,28.3,00.0,38.2,31.4,27.5,0000.0,0013.24,0005.86,0004.50
2022-07-21 05:32:00,,0828.0,5.00,0.00,29.5,28.4,00.0,38.2,31.5,27.1,0000.0,0013.07,0005.89,0004.53
2022-07-21 05:33:00,,0828.0,5.01,0.00,29.5,28.5,00.0,38.3,31.5,26.5,0000.0,0012.90,0005.92,0004.53
2022-07-21 05:34:00,,0828.0,4.99,0.00,29.6,28.5,00.0,38.3,31.6,26.0,0000.0,0012.32,0005.94,0004.53
2022-07-21 05:35:00,,0828.0,5.00,0.00,29.6,28.6,00.0,38.3,31.6,25.7,0000.0,0012.04,0005.90,0004.51
2022-07-21 05:36:00,,0828.0,5.00,0.00,29.7,28.7,00.0,38.3,31.7,25.6,0000.0,0010.53,0005.83,0004.50
2022-07-21 05:37:00,,0827.9,5.00,0.00,29.7,28.2,00.0,38.3,31.7,25.8,0000.0,0010.98,0005.85,0004.51
2022-07-21 05:38:00,,0828.0,5.01,0.00,29.6,27.3,00.0,38.2,31.5,25.8,0000.0,0011.44,0005.87,0004.52
2022-07-21 05:39:00,,0828.0,4.99,0.00,29.6,26.9,00.0,38.2,31.3,25.6,0000.0,0012.10,0005.87,0004.52
2022-07-21 05:40:00,,0827.9,5.01,0.00,29.5,26.8,00.0,38.2,31.2,25.9,0000.0,0012.86,0005.88,0004.51
2022-07-21 05:41:00,,0828.0,5.00,0.00,29.4,26.9,00.0,38.2,31.1,26.2,0000.0,0013.44,0005.88,0004.49
2022-07-21 05:42:00,,0828.0,5.00,0.00,29.4,27.1,00.0,38.2,31.1,26.1,0000.0,0013.66,0005.90,0004.48
2022-07-21 05:43:00,,0828.0,5.00,0.00,29.4,27.3,00.0,38.2,31.2,25.8,0000.0,0014.66,0005.93,0004.46
2022-07-21 05:44:00,,0828.0,5.00,0.00,29.3,27.4,00.0,38.2,31.2,25.6,0000.0,0014.97,0005.94,0004.45
2022-07-21 05:45:00,,0827.9,5.00,0.00,29.3,27.6,00.0,38.2,31.2,25.8,0000.0,0015.18,0005.93,0004.45
2022-07-21 05:46:00,,0827.9,5.01,0.00,29.4,27.8,00.0,38.2,31.3,25.6,0000.0,0015.55,0005.91,0004.45
2022-07-21 05:47:00,,0827.9,5.00,0.00,29.4,27.9,00.0,38.2,31.3,25.3,0000.0,0015.59,0005.92,0004.44
2022-07-21 05:48:00,,0828.0,5.01,0.00,29.4,28.1,00.0,38.2,31.3,25.0,0000.0,0015.55,0006.00,0004.44
2022-07-21 05:49:00,,0828.0,5.01,0.00,29.4,28.2,00.0,38.2,31.4,25.1,0000.0,0015.17,0006.05,0004.44
2022-07-21 05:50:00,,0827.9,5.00,0.00,29.5,28.3,00.0,38.2,31.4,25.4,0000.0,0014.71,0006.02,0004.43
2022-07-21 05:51:00,,0827.9,5.00,0.00,29.5,28.4,00.0,38.2,31.5,25.3,0000.0,0014.28,0006.03,0004.42
2022-07-21 05:52:00,,0827.9,5.00,0.00,29.5,28.4,00.0,38.2,31.5,25.5,0000.0,0013.74,0006.03,0004.41
2022-07-21 05:53:00,,0827.9,5.00,0.00,29.6,28.5,00.0,38.3,31.5,25.2,0000.0,0014.13,0006.03,0004.41
2022-07-21 05:54:00,,0828.0,5.00,0.00,29.6,28.6,00.0,38.3,31.6,25.1,0000.0,0013.38,0006.00,0004.42
2022-07-21 05:55:00,,0827.9,4.99,0.00,29.6,28.6,00.0,38.3,31.6,24.5,0000.0,0013.03,0005.97,0004.43
2022-07-21 05:56:00,,0828.0,5.00,0.00,29.7,28.4,00.0,38.3,31.6,24.0,0000.0,0013.04,0005.99,0004.43
2022-07-21 05:57:00,,0827.9,4.99,0.00,29.6,27.5,00.0,38.2,31.5,24.5,0000.0,0013.22,0006.06,0004.43
2022-07-21 05:58:00,,0828.0,5.00,0.00,29.6,26.9,00.0,38.2,31.4,24.8,0000.0,0013.84,0006.12,0004.43
2022-07-21 05:59:00,,0827.8,5.01,0.00,29.5,26.8,00.0,38.2,31.2,24.6,0000.0,0014.21,0006.10,0004.43
